Location: Oberkirch
(48.5323°N, 8.0787°E)
Time: 01:07:01
(UTC+00:00)

CUTE 1.7 + AOD 2 - Pass Details

Date: 23 March 2026
Orbit: 535 x 545 km, 97.8° (Epoch: 14 April)

Event Time Altitude Azimuth Distance (km) Brightness Sun altitude
Rises 03:13:36 0° 23° (NNE) 2,723 ? -21.6°
Reaches altitude 10° 03:15:59 10° 36° (NE) 1,825 ? -21.3°
Maximum altitude 03:19:22 27° 95° (E) 1,082 ? -20.8°
Drops below altitude 10° 03:22:43 10° 154° (SSE) 1,812 ? -20.3°
Enters shadow 03:24:46 - 166° (SSE) 2,576 ? -20.0°
